Location: Blankensee
(53.5126°N, 14.3055°E)
Time: 18:55:12
(UTC+00:00)

Cosmos 1726 - Pass Details

Date: 08 August 2020
Orbit: 482 x 498 km, 82.5° (Epoch: 20 September)

Event Time Altitude Azimuth Distance (km) Brightness Sun altitude
Exits shadow 01:42:07 - 160° (SSE) 2,037 4.9 -13.0°
Reaches altitude 10° 01:43:03 10° 155° (SSE) 1,684 4.5 -13.0°
Maximum altitude 01:46:19 31° 92° (E) 886 3.8 -12.7°
Drops below altitude 10° 01:49:37 10° 29° (NNE) 1,689 6.2 -12.3°
Sets 01:51:52 0° 19° (NNE) 2,573 7.2 -12.1°
